Lake Shasta Weather Center

Moon Phase Calendar



Lake Shasta Water Level
Online Cameras

 


      

Current Conditions in Lake Shasta
2/21/2024 12:01:47 AM

47°F
Feels Like 47
Clouds
Humidity
93%
Pressure
29.97"
Wind
2 mph (SSE)
Dew Point
45°F
UV Index
0/10 (Low)
Visibility
6 mi

Hourly Forecast

Date & Time Wed, Feb 21
12:00 AM
Wed, Feb 21
1:00 AM
Wed, Feb 21
2:00 AM
Wed, Feb 21
3:00 AM
Wed, Feb 21
4:00 AM
Wed, Feb 21
5:00 AM
Wed, Feb 21
6:00 AM
Wed, Feb 21
7:00 AM
Wed, Feb 21
8:00 AM
Wed, Feb 21
9:00 AM
Wed, Feb 21
10:00 AM
Wed, Feb 21
11:00 AM
Wed, Feb 21
12:00 PM
Wed, Feb 21
1:00 PM
Wed, Feb 21
2:00 PM
Wed, Feb 21
3:00 PM
Wed, Feb 21
4:00 PM
Wed, Feb 21
5:00 PM
Wed, Feb 21
6:00 PM
Wed, Feb 21
7:00 PM
Wed, Feb 21
8:00 PM
Wed, Feb 21
9:00 PM
Wed, Feb 21
10:00 PM
Wed, Feb 21
11:00 PM
Thu, Feb 22
12:00 AM
Thu, Feb 22
1:00 AM
Thu, Feb 22
2:00 AM
Thu, Feb 22
3:00 AM
Thu, Feb 22
4:00 AM
Thu, Feb 22
5:00 AM
Thu, Feb 22
6:00 AM
Thu, Feb 22
7:00 AM
Thu, Feb 22
8:00 AM
Thu, Feb 22
9:00 AM
Thu, Feb 22
10:00 AM
Thu, Feb 22
11:00 AM
Thu, Feb 22
12:00 PM
Thu, Feb 22
1:00 PM
Thu, Feb 22
2:00 PM
Thu, Feb 22
3:00 PM
Thu, Feb 22
4:00 PM
Thu, Feb 22
5:00 PM
Thu, Feb 22
6:00 PM
Thu, Feb 22
7:00 PM
Thu, Feb 22
8:00 PM
Thu, Feb 22
9:00 PM
Thu, Feb 22
10:00 PM
Thu, Feb 22
11:00 PM
Condition
Clouds

Clouds

Clouds

Rain

Rain

Rain

Rain

Rain

Rain

Rain

Rain

Rain

Rain

Rain

Rain

Rain

Rain

Rain

Rain

Clouds

Rain

Clouds

Clouds

Clouds

Clouds

Clouds

Rain

Rain

Clouds

Clouds

Clouds

Clouds

Clouds

Clouds

Clouds

Clouds

Clouds

Clouds

Clouds

Clouds

Clouds

Clouds

Clouds

Clouds

Clouds

Clouds

Clouds

Clouds
Temperature 47°F47°F46°F46°F45°F44°F45°F44°F45°F46°F46°F47°F49°F50°F50°F50°F50°F49°F47°F46°F45°F45°F45°F44°F44°F44°F44°F44°F45°F44°F44°F44°F45°F49°F52°F56°F59°F59°F59°F59°F57°F53°F48°F46°F46°F45°F44°F43°F
Feels Like 47°F47°F46°F46°F45°F44°F45°F44°F45°F46°F46°F47°F48°F48°F49°F49°F50°F49°F47°F46°F45°F44°F45°F43°F42°F43°F42°F43°F43°F42°F42°F41°F43°F48°F51°F54°F57°F57°F57°F57°F55°F52°F48°F46°F44°F43°F41°F40°F
Cloudiness 100%100%100%100%100%100%100%100%100%100%100%100%99%99%99%99%98%75%82%88%90%91%90%74%68%74%78%80%82%64%72%79%81%72%66%49%32%24%20%18%32%100%100%100%100%100%99%44%
Visibility 6 mi2 mi0 mi1 mi2 mi3 mi2 mi2 mi1 mi6 mi6 mi6 mi6 mi6 mi6 mi6 mi6 mi6 mi6 mi6 mi6 mi6 mi6 mi6 mi6 mi6 mi6 mi6 mi6 mi6 mi6 mi6 mi6 mi6 mi6 mi6 mi6 mi6 mi6 mi6 mi6 mi6 mi6 mi6 mi6 mi6 mi6 mi6 mi
Precipitation 48%47%48%52%52%56%55%55%59%53%57%80%81%85%89%92%96%64%56%49%45%44%36%3%7%7%28%28%8%0%0%0%0%0%0%0%0%0%0%0%0%0%0%0%0%0%0%0%
Humidity 93%95%96%97%98%99%99%99%98%95%93%92%86%84%83%82%84%90%92%93%94%94%94%93%94%93%94%94%93%93%93%93%92%83%74%65%57%52%51%51%57%72%80%83%85%85%85%85%
Dew Point 45°F45°F45°F45°F45°F42°F42°F42°F42°F43°F43°F43°F43°F43°F43°F43°F44°F44°F43°F42°F42°F42°F41°F40°F40°F41°F40°F41°F41°F40°F40°F40°F41°F42°F43°F43°F42°F40°F39°F39°F40°F43°F40°F40°F39°F39°F38°F37°F
Pressure 29.97"30"30.03"30.03"30.06"30.09"30.09"30.12"30.15"30.15"30.18"30.18"30.18"30.18"30.18"30.18"30.18"30.18"30.21"30.24"30.24"30.27"30.27"30.27"30.27"30.27"30.3"30.27"30.27"30.27"30.27"30.3"30.3"30.3"30.3"30.3"30.3"30.24"30.24"30.21"30.21"30.21"30.24"30.27"30.27"30.3"30.3"30.3"
Wind Speed 2.9 mph2.6 mph2.7 mph2.7 mph2.4 mph2 mph2.1 mph1.7 mph1.8 mph2.3 mph2.8 mph2.8 mph3.6 mph4.5 mph3.8 mph3.4 mph2.7 mph0.7 mph1.4 mph2.1 mph2.5 mph3.1 mph3 mph3.1 mph3.4 mph3.5 mph3.7 mph3.6 mph3.8 mph3.9 mph4 mph4.2 mph3.8 mph3.2 mph2.6 mph1.2 mph0.9 mph2.7 mph3.3 mph3.4 mph3.1 mph2.1 mph0.4 mph2.7 mph4.1 mph4.6 mph4.7 mph5 mph
Wind
Direction
197°
SSW
197°
SSW
195°
SSW
197°
SSW
200°
SSW
199°
SSW
205°
SSW
206°
SSW
198°
SSW
194°
SSW
190°
S
183°
S
180°
S
186°
S
176°
S
163°
SSE
184°
S
201°
SSW
357°
N

N

N
19°
NNE
16°
NNE

N

N

N

N

N
11°
N

N
357°
N
357°
N

N
355°
N
345°
NNW
17°
NNE
217°
SW
157°
SSE
182°
S
189°
S
200°
SSW
201°
SSW
300°
WNW

N
358°
N
352°
N
352°
N
352°
N

Daily Forecast

Date High Low Precip. Humidity
Today
Feb 21

Rain
50 °F
44 °F
96%
86%
Thursday
Feb 22

Rain
59 °F
43 °F
28%
57%
Friday
Feb 23

Clouds
65 °F
40 °F
0%
44%
Saturday
Feb 24

Clear
65 °F
41 °F
0%
41%
Sunday
Feb 25

Rain
58 °F
42 °F
76%
67%
Monday
Feb 26

Rain
49 °F
33 °F
97%
86%
Tuesday
Feb 27

Clouds
52 °F
31 °F
1%
29%
Wednesday
Feb 28

Clouds
52 °F
34 °F
0%
44%
Thursday
Feb 29

Rain
48 °F
36 °F
38%
76%
Friday
Mar 1

Rain
46 °F
39 °F
100%
96%
Saturday
Mar 2

Rain
45 °F
37 °F
100%
79%
Sunday
Mar 3

Snow
45 °F
38 °F
59%
89%
Monday
Mar 4

Rain
40 °F
38 °F
100%
99%
Tuesday
Mar 5

Rain
44 °F
39 °F
100%
99%
Wednesday
Mar 6

Rain
45 °F
38 °F
100%
98%
Thursday
Mar 7

Snow
47 °F
35 °F
28%
72%

Temperature 8-14 Day Outlook



Precipitation 8-14 Day Outlook






About Us
Contact Us
Site Map
Search Site
Advertise With Us
   
Shasta.USLakes.info
THE LAKE SHASTA WEBSITE

Copyright 2024, Lakes Online
Privacy    |    Legal